• In Uzbekistan
  • List of Countries
  • For 7 days
  • Water Temperature
  • Satellite Maps
  • Weather Map
  • Weather Widgets
  • user-avatar
    Login

    Hourly Weather Maseru

    Today, 19 February, Monday

    Time Temperature Precipitation Wind Pressure Humidity
    00:00 +20°C° 0 mm 1 mps 635 mmHg 64%
    01:00 +18°C° 0 mm 0 mps 634 mmHg 66%
    02:00 +17°C° 0 mm 0 mps 635 mmHg 67%
    03:00 +17°C° 0 mm 0 mps 635 mmHg 67%
    04:00 +17°C° 0 mm 0 mps 635 mmHg 67%
    05:00 +17°C° 0 mm 0 mps 635 mmHg 67%
    06:00 +18°C° 0 mm 0 mps 635 mmHg 62%
    07:00 +20°C° 0 mm 0 mps 636 mmHg 56%
    08:00 +21°C° 0 mm 0 mps 637 mmHg 51%
    09:00 +23°C° 0 mm 0 mps 637 mmHg 47%
    10:00 +26°C° 0 mm 1 mps 637 mmHg 43%
    11:00 +28°C° 0 mm 1 mps 638 mmHg 39%
    12:00 +29°C° 0 mm 1 mps 637 mmHg 36%
    13:00 +30°C° 0 mm 2 mps 637 mmHg 34%
    14:00 +30°C° 0 mm 2 mps 637 mmHg 31%
    15:00 +30°C° 0 mm 3 mps 637 mmHg 33%
    16:00 +29°C° 0 mm 3 mps 637 mmHg 35%
    17:00 +29°C° 0 mm 4 mps 636 mmHg 36%
    18:00 +27°C° 0.2 mm 3 mps 636 mmHg 43%
    19:00 +25°C° 0.2 mm 2 mps 636 mmHg 50%
    20:00 +23°C° 0.2 mm 1 mps 635 mmHg 57%
    21:00 +22°C° 0 mm 1 mps 636 mmHg 59%
    22:00 +22°C° 0 mm 1 mps 636 mmHg 61%
    23:00 +21°C° 0 mm 1 mps 636 mmHg 63%

    Tomorrow, 20 February, Tuesday

    Time Temperature Precipitation Wind Pressure Humidity
    00:00 +21°C° 0 mm 1 mps 636 mmHg 64%
    01:00 +20°C° 0 mm 1 mps 635 mmHg 66%
    02:00 +20°C° 0 mm 1 mps 635 mmHg 67%
    03:00 +19°C° 0 mm 1 mps 635 mmHg 68%
    04:00 +19°C° 0 mm 1 mps 635 mmHg 69%
    05:00 +19°C° 0 mm 1 mps 635 mmHg 69%
    06:00 +21°C° 0 mm 1 mps 636 mmHg 63%
    07:00 +22°C° 0 mm 1 mps 637 mmHg 57%
    08:00 +24°C° 0 mm 1 mps 637 mmHg 51%
    09:00 +26°C° 0 mm 2 mps 638 mmHg 47%
    10:00 +28°C° 0 mm 2 mps 638 mmHg 42%
    11:00 +29°C° 0 mm 2 mps 638 mmHg 38%
    12:00 +30°C° 0 mm 2 mps 638 mmHg 36%
    13:00 +30°C° 0 mm 2 mps 637 mmHg 35%
    14:00 +31°C° 0 mm 3 mps 637 mmHg 33%
    15:00 +30°C° 0 mm 3 mps 636 mmHg 34%
    16:00 +30°C° 0 mm 3 mps 636 mmHg 35%
    17:00 +30°C° 0 mm 3 mps 636 mmHg 36%
    18:00 +28°C° 0 mm 2 mps 636 mmHg 40%
    19:00 +25°C° 0 mm 2 mps 635 mmHg 44%
    20:00 +23°C° 0 mm 1 mps 635 mmHg 48%
    21:00 +23°C° 0 mm 2 mps 635 mmHg 51%
    22:00 +21°C° 0 mm 2 mps 635 mmHg 53%
    23:00 +21°C° 0 mm 2 mps 636 mmHg 55%

    Day after tomorrow, 21 February, Wednesday

    Time Temperature Precipitation Wind Pressure Humidity
    00:00 +20°C° 0 mm 2 mps 635 mmHg 60%
    01:00 +20°C° 0 mm 1 mps 635 mmHg 64%
    02:00 +19°C° 0 mm 1 mps 634 mmHg 69%
    03:00 +19°C° 0 mm 1 mps 634 mmHg 72%
    04:00 +18°C° 0 mm 1 mps 634 mmHg 74%
    05:00 +18°C° 0 mm 1 mps 634 mmHg 77%
    06:00 +20°C° 0 mm 1 mps 636 mmHg 70%
    07:00 +22°C° 0 mm 1 mps 637 mmHg 64%
    08:00 +24°C° 0 mm 2 mps 638 mmHg 57%
    09:00 +25°C° 0 mm 2 mps 638 mmHg 51%
    10:00 +27°C° 0 mm 2 mps 638 mmHg 46%
    11:00 +29°C° 0 mm 2 mps 638 mmHg 40%
    12:00 +30°C° 0 mm 2 mps 638 mmHg 35%
    13:00 +31°C° 0 mm 2 mps 637 mmHg 31%
    14:00 +33°C° 0 mm 3 mps 637 mmHg 26%
    15:00 +31°C° 0 mm 3 mps 636 mmHg 28%
    16:00 +31°C° 0 mm 3 mps 636 mmHg 30%
    17:00 +30°C° 0 mm 3 mps 636 mmHg 32%
    18:00 +28°C° 0 mm 3 mps 636 mmHg 37%
    19:00 +26°C° 0 mm 2 mps 636 mmHg 42%
    20:00 +24°C° 0 mm 2 mps 636 mmHg 47%
    21:00 +23°C° 0.1 mm 2 mps 636 mmHg 54%
    22:00 +21°C° 0.1 mm 2 mps 636 mmHg 61%
    23:00 +20°C° 0.1 mm 3 mps 636 mmHg 67%

    22 February, Thursday

    Time Temperature Precipitation Wind Pressure Humidity
    00:00 +19°C° 0 mm 3 mps 636 mmHg 72%
    01:00 +18°C° 0 mm 2 mps 635 mmHg 76%
    02:00 +18°C° 0 mm 2 mps 635 mmHg 80%
    03:00 +17°C° 0 mm 2 mps 635 mmHg 82%
    04:00 +18°C° 0 mm 1 mps 635 mmHg 84%
    05:00 +16°C° 0 mm 1 mps 634 mmHg 86%
    06:00 +19°C° 0 mm 1 mps 635 mmHg 79%
    07:00 +20°C° 0 mm 1 mps 636 mmHg 73%
    08:00 +21°C° 0 mm 1 mps 637 mmHg 66%
    09:00 +23°C° 0.1 mm 2 mps 637 mmHg 61%
    10:00 +24°C° 0.1 mm 3 mps 638 mmHg 57%
    11:00 +25°C° 0.1 mm 3 mps 638 mmHg 52%
    12:00 +25°C° 0.5 mm 4 mps 637 mmHg 54%
    13:00 +25°C° 0.5 mm 5 mps 637 mmHg 55%
    14:00 +25°C° 0.5 mm 5 mps 636 mmHg 57%
    15:00 +23°C° 0.7 mm 5 mps 636 mmHg 59%
    16:00 +22°C° 0.7 mm 5 mps 636 mmHg 62%
    17:00 +21°C° 0.7 mm 5 mps 635 mmHg 64%
    18:00 +20°C° 0.2 mm 4 mps 635 mmHg 68%
    19:00 +19°C° 0.2 mm 3 mps 635 mmHg 71%
    20:00 +18°C° 0.2 mm 2 mps 635 mmHg 75%
    21:00 +18°C° 0 mm 2 mps 635 mmHg 76%
    22:00 +17°C° 0 mm 2 mps 635 mmHg 76%
    23:00 +17°C° 0 mm 2 mps 635 mmHg 77%

    23 February, Friday

    Time Temperature Precipitation Wind Pressure Humidity
    00:00 +16°C° 0 mm 2 mps 635 mmHg 81%
    01:00 +15°C° 0 mm 1 mps 634 mmHg 84%
    02:00 +14°C° 0 mm 1 mps 634 mmHg 87%
    03:00 +14°C° 0 mm 1 mps 633 mmHg 88%
    04:00 +13°C° 0 mm 1 mps 633 mmHg 89%
    05:00 +13°C° 0 mm 1 mps 633 mmHg 90%
    06:00 +15°C° 0 mm 1 mps 634 mmHg 83%
    07:00 +16°C° 0 mm 1 mps 635 mmHg 76%
    08:00 +19°C° 0 mm 1 mps 636 mmHg 68%
    09:00 +20°C° 0 mm 2 mps 636 mmHg 61%
    10:00 +23°C° 0 mm 2 mps 636 mmHg 54%
    11:00 +24°C° 0 mm 3 mps 636 mmHg 46%
    12:00 +26°C° 0 mm 2 mps 636 mmHg 43%
    13:00 +27°C° 0 mm 2 mps 635 mmHg 39%
    14:00 +28°C° 0 mm 2 mps 635 mmHg 36%
    15:00 +28°C° 0 mm 2 mps 635 mmHg 36%
    16:00 +28°C° 0 mm 2 mps 635 mmHg 35%
    17:00 +28°C° 0 mm 2 mps 635 mmHg 35%
    18:00 +26°C° 0 mm 2 mps 634 mmHg 42%
    19:00 +24°C° 0 mm 2 mps 634 mmHg 50%
    20:00 +20°C° 0 mm 2 mps 633 mmHg 57%
    21:00 +21°C° 0 mm 1 mps 633 mmHg 61%
    22:00 +20°C° 0 mm 1 mps 633 mmHg 65%
    23:00 +19°C° 0 mm 1 mps 633 mmHg 68%

    24 February, Saturday

    Time Temperature Precipitation Wind Pressure Humidity
    00:00 +19°C° 0 mm 1 mps 633 mmHg 71%
    01:00 +18°C° 0 mm 1 mps 633 mmHg 73%
    02:00 +18°C° 0 mm 1 mps 632 mmHg 76%
    03:00 +16°C° 0 mm 1 mps 632 mmHg 78%
    04:00 +16°C° 0 mm 1 mps 633 mmHg 80%
    05:00 +15°C° 0 mm 1 mps 633 mmHg 82%
    06:00 +18°C° 0 mm 1 mps 633 mmHg 75%
    07:00 +20°C° 0 mm 1 mps 634 mmHg 68%
    08:00 +22°C° 0 mm 1 mps 635 mmHg 62%
    09:00 +24°C° 0 mm 1 mps 635 mmHg 56%
    10:00 +25°C° 0 mm 2 mps 635 mmHg 51%
    11:00 +27°C° 0 mm 2 mps 635 mmHg 45%
    12:00 +28°C° 0 mm 2 mps 635 mmHg 41%
    13:00 +29°C° 0 mm 2 mps 635 mmHg 37%
    14:00 +30°C° 0 mm 2 mps 635 mmHg 34%
    15:00 +30°C° 0 mm 2 mps 634 mmHg 35%
    16:00 +29°C° 0 mm 3 mps 634 mmHg 36%
    17:00 +29°C° 0 mm 3 mps 634 mmHg 37%
    18:00 +27°C° 0.2 mm 3 mps 633 mmHg 44%
    19:00 +25°C° 0.2 mm 2 mps 633 mmHg 51%
    20:00 +23°C° 0.2 mm 2 mps 633 mmHg 58%
    21:00 +21°C° 0.3 mm 2 mps 632 mmHg 64%
    22:00 +20°C° 0.3 mm 2 mps 632 mmHg 69%
    23:00 +19°C° 0.3 mm 2 mps 632 mmHg 75%
    Show more